This demonstration page uses our WeatherBlox Daily Observations layout. Learn more.

Hourly Observations for May 20, 2015

Temp ( °F °C ) Dew Point ( °F °C ) Humidity (%) Winds ( mph kmh ) Pressure ( in mb ) Visibility ( mi km ) Precip ( " mm )
12:15 am 00:15 Cloudy with Mist and Fog 41 4.9 39 4 94 94 NE 9 15 30.24 1024 4 6.43736 0 0
12:35 am 00:35 Cloudy with Mist and Fog 41 5 39 4 93 93 NNE 9 15 30.24 1024 5 8.0467 0 0
12:55 am 00:55 Cloudy with Mist and Fog 41 4.8 39 4 95 95 NE 8 13 30.24 1024 4 6.43736 0 0
1:15 am 01:15 Cloudy with Mist and Fog 41 5 39 4 93 93 NNE 9 15 30.24 1024 4 6.43736 0 0
1:35 am 01:35 Cloudy with Mist and Fog 41 5 40 4.2 95 95 NNE 9 15 30.24 1024 3 4.82802 0 0
1:55 am 01:55 Cloudy with Mist and Fog 41 5 39 4.1 94 94 NNE 9 15 30.24 1024 3 4.82802 0 0
2:15 am 02:15 Cloudy with Mist and Fog 41 5 39 4.1 94 94 NNE 9 15 30.24 1024 3 4.82802 0 0
2:35 am 02:35 Cloudy with Mist and Fog 41 5 39 4.1 94 94 NNE 10 17 30.24 1024 3 4.82802 0 0
2:55 am 02:55 Cloudy with Mist and Fog 41 5 40 4.2 95 95 NNE 9 15 30.21 1023 3 4.82802 0 0
3:15 am 03:15 Cloudy with Mist and Fog 41 5 40 4.2 95 95 NNE 9 15 30.21 1023 4 6.43736 0 0
3:35 am 03:35 Cloudy with Mist and Fog 41 5 40 4.2 95 95 NNE 8 13 30.21 1023 4 6.43736 0 0
3:55 am 03:55 Cloudy with Mist and Fog 41 5 40 4.2 95 95 NNE 9 15 30.21 1023 4 6.43736 0 0
4:15 am 04:15 Cloudy with Mist and Fog 41 5.1 40 4.3 95 95 NNE 8 13 30.21 1023 3 4.82802 0 0
4:35 am 04:35 Cloudy with Mist and Fog 41 5.1 40 4.3 95 95 NNE 8 13 30.21 1023 3 4.82802 0 0
4:55 am 04:55 Cloudy with Mist and Fog 41 5.1 40 4.4 95 95 NNE 8 13 30.21 1023 3 4.82802 0 0
5:15 am 05:15 Cloudy with Mist and Fog 41 5.1 40 4.5 96 96 NNE 9 15 30.21 1023 3 4.82802 0 0
5:35 am 05:35 Cloudy with Mist and Fog 41 5.1 40 4.5 96 96 NNE 9 15 30.21 1023 3 4.82802 0 0
5:55 am 05:55 Cloudy with Mist and Fog 41 5.2 40 4.5 95 95 NNE 9 15 30.21 1023 3 4.82802 0 0
6:15 am 06:15 Cloudy with Mist and Fog 42 5.3 40 4.6 95 95 N 8 13 30.21 1023 5 8.0467 0 0
6:35 am 06:35 Cloudy 42 5.3 40 4.6 95 95 NNE 8 13 30.24 1024 7 11.26538 0 0
6:55 am 06:55 Cloudy with Mist and Fog 42 5.5 40 4.6 94 94 NNE 7 11 30.24 1024 5 8.0467 0 0
7:15 am 07:15 Cloudy with Mist and Fog 42 5.5 40 4.6 94 94 NNE 8 13 30.24 1024 5 8.0467 0 0
7:35 am 07:35 Cloudy with Mist and Fog 42 5.5 40 4.6 94 94 N 10 17 30.24 1024 5 8.0467 0 0
7:55 am 07:55 Cloudy with Mist and Fog 42 5.5 40 4.6 94 94 N 10 17 30.24 1024 2.5 4.02335 0 0
8:15 am 08:15 Cloudy with Mist and Fog 42 5.6 40 4.7 94 94 NNE 10 17 30.27 1025 3 4.82802 0 0
8:35 am 08:35 Cloudy with Mist and Fog 43 5.9 41 5 94 94 NNE 12 19 30.27 1025 5 8.0467 0 0
8:55 am 08:55 Cloudy with Mist and Fog 43 6 41 4.9 93 93 N 9 15 30.27 1025 5 8.0467 0 0
9:15 am 09:15 Cloudy 43 5.9 40 4.6 91 91 NNE 10 17 30.27 1025 10 16.0934 0 0
9:35 am 09:35 Cloudy with Mist and Fog 43 6 40 4.7 91 91 NNE 10 17 30.27 1025 5 8.0467 0 0
9:55 am 09:55 Cloudy with Light Drizzle 43 5.9 41 4.8 93 93 N 9 15 30.27 1025 4 6.43736 0 0
10:15 am 10:15 Cloudy 43 6.2 41 5.1 93 93 N 8 13 30.3 1026 7 11.26538 0 0
10:35 am 10:35 Cloudy with Rain 43 6.3 41 5 91 91 NNE 9 15 30.3 1026 7 11.26538 0 0
10:55 am 10:55 Cloudy 45 7.2 42 5.6 90 90 NNE 13 20 30.3 1026 10 16.0934 0 0
11:15 am 11:15 Cloudy 46 7.5 42 5.3 86 86 NNE 12 19 30.3 1026 10 16.0934 0 0
11:35 am 11:35 Cloudy 46 8 41 5.2 83 83 N 12 19 30.3 1026 10 16.0934 0 0
11:55 am 11:55 Cloudy with Light Drizzle 46 7.5 41 5 84 84 NNE 12 19 30.3 1026 10 16.0934 0 0
12:15 pm 12:15 Cloudy 46 7.9 41 4.9 82 82 N 9 15 30.3 1026 10 16.0934 0 0
12:35 pm 12:35 Cloudy 46 7.9 41 5 82 82 N 9 15 30.3 1026 10 16.0934 0 0
12:55 pm 12:55 Cloudy 46 7.9 41 4.9 82 82 N 12 19 30.3 1026 10 16.0934 0 0
1:15 pm 13:15 Cloudy 47 8.5 41 5.1 79 79 N 10 17 30.27 1025 10 16.0934 0 0
1:35 pm 13:35 Cloudy 48 9.1 41 5.1 76 76 N 9 15 30.27 1025 10 16.0934 0 0
1:55 pm 13:55 Cloudy 49 9.7 42 5.5 75 75 N 8 13 30.27 1025 10 16.0934 0 0
2:15 pm 14:15 Cloudy 47 8.6 41 5.1 79 79 NNE 15 24 30.27 1025 10 16.0934 0 0
2:35 pm 14:35 Cloudy 47 8.5 42 5.6 82 82 NNE 10 17 30.27 1025 10 16.0934 0 0
2:55 pm 14:55 Cloudy 49 9.2 41 5 75 75 N 10 17 30.27 1025 10 16.0934 0 0
3:15 pm 15:15 Mostly Cloudy 49 9.5 41 4.8 73 73 NNE 13 20 30.27 1025 10 16.0934 0 0
3:35 pm 15:35 Mostly Cloudy 49 9.7 41 4.9 72 72 N 12 19 30.27 1025 10 16.0934 0 0
3:55 pm 15:55 Cloudy 49 9.2 41 4.8 74 74 NNW 10 17 30.27 1025 10 16.0934 0 0
4:15 pm 16:15 Cloudy 49 9.2 41 5.1 76 76 N 9 15 30.27 1025 10 16.0934 0 0
4:35 pm 16:35 Cloudy 48 9.1 40 4.6 74 74 NNE 10 17 30.27 1025 10 16.0934 0 0
4:55 pm 16:55 Cloudy 49 9.5 40 4.4 71 71 N 8 13 30.27 1025 10 16.0934 0 0
5:15 pm 17:15 Cloudy 49 9.7 41 4.9 72 72 N 13 20 30.27 1025 10 16.0934 0 0
5:35 pm 17:35 Cloudy 50 10.1 40 4.6 69 69 N 14 22 30.27 1025 10 16.0934 0 0
5:55 pm 17:55 Cloudy 50 9.8 40 4.3 69 69 N 13 20 30.27 1025 10 16.0934 0 0
6:15 pm 18:15 Cloudy 49 9.5 39 3.9 68 68 NNE 9 15 30.27 1025 10 16.0934 0 0
6:35 pm 18:35 Cloudy 49 9.5 40 4.2 70 70 NNE 10 17 30.27 1025 10 16.0934 0 0
6:55 pm 18:55 Cloudy 49 9.5 39 4.1 69 69 NNE 9 15 30.27 1025 10 16.0934 0 0
7:15 pm 19:15 Mostly Cloudy 49 9.6 40 4.7 72 72 NNE 13 20 30.24 1024 10 16.0934 0 0
7:35 pm 19:35 Partly Cloudy 49 9.3 40 4.2 71 71 NNE 7 11 30.27 1025 10 16.0934 0 0
7:55 pm 19:55 Mostly Cloudy 48 9 39 3.7 70 70 N 13 20 30.27 1025 10 16.0934 0 0
8:15 pm 20:15 Cloudy 47 8.6 40 4.2 74 74 NNE 9 15 30.27 1025 10 16.0934 0 0
8:35 pm 20:35 Cloudy 47 8.5 40 4.6 77 77 NNE 8 13 30.27 1025 10 16.0934 0 0
8:55 pm 20:55 Cloudy 47 8.2 40 4.7 79 79 NE 12 19 30.3 1026 10 16.0934 0 0
9:15 pm 21:15 Cloudy 46 7.9 40 4.5 79 79 NE 10 17 30.3 1026 10 16.0934 0 0
9:35 pm 21:35 Mostly Cloudy 45 7.1 40 4.3 83 83 NE 7 11 30.3 1026 10 16.0934 0 0
9:55 pm 21:55 Partly Cloudy 43 6.3 39 4 85 85 NW 3 6 30.33 1027 10 16.0934 0 0
10:15 pm 22:15 Clear 43 6 39 4 87 87 Calm 30.33 1027 10 16.0934 0 0
10:35 pm 22:35 Clear 42 5.8 39 4 88 88 NW 3 6 30.33 1027 10 16.0934 0 0
10:55 pm 22:55 Clear 42 5.7 39 4 89 89 NW 3 6 30.33 1027 10 16.0934 0 0
11:15 pm 23:15 Clear 41 5.1 38 3.6 90 90 WNW 5 7 30.36 1028 10 16.0934 0 0
11:35 pm 23:35 Clear 41 5.1 38 3.5 90 90 Calm 30.36 1028 10 16.0934 0 0
11:55 pm 23:55 Clear 41 5 38 3.5 90 90 Calm 30.36 1028 10 16.0934 0 0

Powered by AerisWeather